Simultaneous Nadir Overpasses (SNOs) Predictions

Prediction of SNOs between NPP and TERRA Satellite Orbit:

Table of predicted SNOs for the next 14.0 days since TLE Epoch: 11/17/2013
Index Date (NPP) Time (NPP) Lat,Lon (NPP) SZA (NPP ) Date (TERRA) Time (TERRA) Lat,Lon (TERRA) SZA (TERRA ) Distance(km) Time Diff (sec)
1 11/18/2013 09:49:50 -68.54,-148.81 92.26 11/18/2013 09:50:43 -68.55,-148.77 92.25 2.16 53
2 11/18/2013 10:40:33 68.37, 18.72 87.58 11/18/2013 10:40:11 68.38, 18.68 87.59 2.67 22
3 11/18/2013 11:31:02 -67.58,-172.97 93.19 11/18/2013 11:29:53 -67.60,-174.60 93.19 69.34 69
4 11/21/2013 01:16:20 69.55, 158.25 89.35 11/21/2013 01:17:26 69.45, 160.65 89.28 93.85 66
5 11/21/2013 02:06:44 -68.50, -32.97 91.69 11/21/2013 02:07:11 -68.51, -32.92 91.68 2.66 27
6 11/21/2013 02:57:27 68.33, 134.56 88.15 11/21/2013 02:56:39 68.34, 134.52 88.16 2.46 48
7 11/23/2013 17:32:57 68.61, -84.66 88.99 11/23/2013 17:34:08 68.60, -84.56 88.97 4.41 71
8 11/23/2013 18:23:37 -68.41, 82.92 91.21 11/23/2013 18:23:39 -68.44, 82.88 91.19 3.35 2
9 11/23/2013 19:14:20 68.24,-109.55 88.64 11/23/2013 19:13:07 68.26,-109.69 88.65 6.06 73
10 11/26/2013 09:49:49 68.54, 31.22 89.44 11/26/2013 09:50:34 68.53, 31.26 89.43 1.69 45
11 11/26/2013 10:40:30 -68.39,-161.26 90.71 11/26/2013 10:40:05 -68.38,-161.30 90.73 2.43 25
12 11/29/2013 01:16:13 -69.39, -21.47 89.25 11/29/2013 01:17:21 -69.28, -19.55 89.35 76.32 68
13 11/29/2013 02:06:42 68.48, 147.09
